Jackson, MI

9:43 PM EDT on September 17, 2019 (GMT -0400)
Jackson County-Reynolds

Weather History for KJXN - May, 2019

Change the Weather History Date:

Friday, May 31, 2019

  Actual Average Record
Temperature  
Mean Temperature 65 °F 63 °F  
Max Temperature 79 °F 74 °F 94 °F (1977)
Min Temperature 50 °F 51 °F 32 °F (1966)
Degree Days  
Heating Degree Days 0 4  
Month to date heating degree days 239 257  
Since 1 July heating degree days 6636 6602  
Cooling Degree Days 0 2  
Month to date cooling degree days 10 31  
Year to date cooling degree days 10 37  
Growing Degree Days 15 (Base 50)    
Moisture  
Dew Point 54 °F    
Average Humidity 72    
Maximum Humidity 100    
Minimum Humidity 43    
Precipitation  
Precipitation 0.00 in 0.11 in 1.67 in (1989)
Month to date precipitation 3.77 3.31  
Year to date precipitation 12.01 10.60  
Sea Level Pressure  
Sea Level Pressure 29.84 in    
Wind  
Wind Speed 7 mph (SW)    
Max Wind Speed 16 mph    
Max Gust Speed 23 mph    
Visibility 6 miles    
Events Fog    
T = Trace of Precipitation, MM = Missing Value Source: NWS Daily Summary

Daily Weather History Graph

Daily Weather History Graph

Search for Another Location

Airport or City:

Astronomy

May. 31, 2019 Rise Set
Actual Time 6:04 AM EDT 9:06 PM EDT
Civil Twilight 5:30 AM EDT 9:40 PM EDT
Nautical Twilight 4:47 AM EDT 10:23 PM EDT
Astronomical Twilight 3:57 AM EDT 11:14 PM EDT
Moon 4:42 AM EDT (5/31) 6:11 PM EDT (5/31)
Length of Visible Light 16h 09m
Length of Day
15h 02m
Waning Crescent, 9% of the Moon is Illuminated
May 31
Waning Crescent
Jun 3
New
Jun 10
First Quarter
Jun 17
Full
Jun 25
Last Quarter

Hourly Weather History & Observations

Time (EDT) Temp. Dew Point Humidity Pressure Visibility Wind Dir Wind Speed Gust Speed Precip Events Conditions
12:56 AM 55.0 °F 55.0 °F 100% 29.83 in 10.0 mi South 3.5 mph - N/A   Clear
1:32 AM 54.0 °F 54.0 °F 100% 29.84 in 2.5 mi Calm Calm - N/A   Clear
1:39 AM 55.0 °F 55.0 °F 100% 29.84 in 4.0 mi Calm Calm - N/A   Clear
1:43 AM 55.0 °F 55.0 °F 100% 29.84 in 1.8 mi WSW 3.5 mph - N/A   Clear
1:52 AM 53.6 °F 53.6 °F 100% 29.84 in 0.5 mi Calm Calm - N/A Fog Fog
1:56 AM 54.0 °F 54.0 °F 100% 29.84 in 0.8 mi Calm Calm - N/A   Clear
2:01 AM 55.0 °F 54.0 °F 96% 29.84 in 2.0 mi Calm Calm - N/A   Clear
2:09 AM 55.0 °F 55.0 °F 100% 29.83 in 9.0 mi Calm Calm - N/A   Clear
2:56 AM 53.1 °F 53.1 °F 100% 29.83 in 6.0 mi SW 3.5 mph - N/A   Clear
3:06 AM 52.0 °F 52.0 °F 100% 29.83 in 1.8 mi SW 4.6 mph - N/A   Clear
3:20 AM 53.1 °F 53.1 °F 100% 29.83 in 0.8 mi SSW 4.6 mph - N/A   Clear
3:26 AM 52.0 °F 52.0 °F 100% 29.83 in 2.0 mi SW 4.6 mph - N/A   Clear
3:37 AM 52.0 °F 52.0 °F 100% 29.83 in 1.0 mi SW 5.8 mph - N/A   Clear
3:47 AM 52.0 °F 52.0 °F 100% 29.83 in 0.8 mi Calm Calm - N/A   Clear
3:56 AM 53.1 °F 53.1 °F 100% 29.83 in 0.8 mi Calm Calm - N/A   Mist
4:04 AM 52.0 °F 52.0 °F 100% 29.83 in 1.2 mi Calm Calm - N/A   Partly Cloudy
4:14 AM 53.1 °F 53.1 °F 100% 29.84 in 3.0 mi Calm Calm - N/A   Partly Cloudy
4:45 AM 53.1 °F 53.1 °F 100% 29.84 in 1.8 mi SW 3.5 mph - N/A   Mist
4:56 AM 51.1 °F 51.1 °F 100% 29.85 in 0.5 mi Calm Calm - N/A Fog Fog
5:04 AM 52.0 °F 52.0 °F 100% 29.85 in 2.0 mi Calm Calm - N/A   Clear
5:13 AM 52.0 °F 52.0 °F 100% 29.85 in 1.0 mi Calm Calm - N/A   Mist
5:21 AM 51.1 °F 51.1 °F 100% 29.85 in 0.8 mi Calm Calm - N/A   Mist
5:24 AM 51.1 °F 51.1 °F 100% 29.85 in 1.2 mi Calm Calm - N/A   Scattered Clouds
5:30 AM 52.0 °F 51.1 °F 97% 29.86 in 3.0 mi Calm Calm - N/A   Partly Cloudy
5:56 AM 51.1 °F 51.1 °F 100% 29.86 in 10.0 mi South 4.6 mph - N/A   Clear
6:56 AM 52.0 °F 52.0 °F 100% 29.87 in 10.0 mi Calm Calm - N/A   Clear
7:56 AM 57.0 °F 55.9 °F 96% 29.87 in 8.0 mi Calm Calm - N/A   Clear
8:56 AM 62.1 °F 57.9 °F 86% 29.87 in 10.0 mi SW 4.6 mph - N/A   Clear
9:56 AM 66.0 °F 60.1 °F 81% 29.87 in 10.0 mi SW 4.6 mph - N/A   Clear
10:56 AM 69.1 °F 59.0 °F 70% 29.86 in 10.0 mi SW 9.2 mph - N/A   Clear
11:56 AM 72.0 °F 57.9 °F 61% 29.87 in 10.0 mi SW 9.2 mph - N/A   Clear
12:56 PM 75.0 °F 55.9 °F 51% 29.87 in 10.0 mi WSW 12.7 mph - N/A   Clear
1:56 PM 77.0 °F 54.0 °F 45% 29.86 in 10.0 mi SW 11.5 mph - N/A   Clear
2:56 PM 78.1 °F 55.0 °F 45% 29.85 in 10.0 mi SW 11.5 mph 19.6 mph N/A   Clear
3:56 PM 79.0 °F 55.9 °F 45% 29.83 in 10.0 mi WSW 9.2 mph - N/A   Clear
4:56 PM 79.0 °F 55.9 °F 45% 29.82 in 10.0 mi SW 12.7 mph - N/A   Clear
5:56 PM 78.1 °F 57.9 °F 50% 29.81 in 10.0 mi SW 11.5 mph - N/A   Clear
6:56 PM 78.1 °F 57.9 °F 50% 29.80 in 10.0 mi SSW 13.8 mph - N/A   Clear
7:56 PM 75.0 °F 57.0 °F 53% 29.81 in 10.0 mi SW 9.2 mph - N/A   Clear
8:56 PM 72.0 °F 57.0 °F 59% 29.81 in 10.0 mi SSW 8.1 mph - N/A   Clear
9:56 PM 70.0 °F 57.0 °F 63% 29.80 in 10.0 mi SSW 9.2 mph - N/A   Clear
10:56 PM 69.1 °F 57.0 °F 65% 29.80 in 10.0 mi SSW 9.2 mph - N/A   Clear
11:56 PM 66.0 °F 57.9 °F 75% 29.83 in 10.0 mi SW 5.8 mph - N/A   Clear